User: anonymous   Login
Location: Unspecified
(0.0000°N, 0.0000°E)
Time: 19:02:46
(UTC+02:00)
Language:

ITAMSAT 1 - Orbit

View from above orbital plane
View from above orbital plane
View from above satellite
View from above satellite

Ground track
Ground track

The orbit data is extracted from the following two-line orbital elements,

1 22826U 93061D   17267.90752801 +.00000011 +00000-0 +21666-4 0  9991
2 22826 098.8185 234.8429 0009636 036.1559 324.0272 14.30336564251582
Epoch (UTC): 24 September 2017 21:46:50
Eccentricity: 0.0009636
inclination: 98.8185°
perigee height: 784 km
apogee height: 797 km
right ascension of ascending node: 234.8429°
argument of perigee: 36.1559°
revolutions per day: 14.30336564
mean anomaly at epoch: 324.0272°
orbit number at epoch: 25158

The dashed part of the orbit path shows where the satellite is in the earth's shadow,  

DLR